Terminal Aerodrome Forecast
Issued by NWS Houston/Galveston, TX

Home | Current Version | Previous Version | Text Only | Print | Product List | Glossary On
Versions: 1 2 3 4 5 6 7 8 9 10 11 12 13 14 15 16 17 18 19 20 21 22 23 24 25 26 27 28 29 30 31 32 33 34 35
000
FTUS44 KHGX 281120
TAFCLL
TAF
KCLL 281120Z 2812/2912 VRB02KT P6SM FEW006
     FM281500 VRB05KT P6SM FEW050
     FM290300 04005KT P6SM SCT040 BKN250 PROB30 2903/2906 SHRA=

USA.gov is the U.S. government's official web portal to all federal, state and local government web resources and services.